Location: Béaulencourt
(50.0796°N, 2.8795°E)
Time: 01:04:14
(UTC+00:00)

Okean 1-7 - Pass Details

Date: 20 January 2026
Orbit: 566 x 587 km, 82.5° (Epoch: 18 February)

Event Time Altitude Azimuth Distance (km) Brightness Sun altitude
Exits shadow 06:37:30 - 330° (NNW) 2,215 5.4 -9.4°
Reaches altitude 10° 06:38:30 10° 323° (NW) 1,888 5.0 -9.3°
Maximum altitude 06:41:40 21° 273° (W) 1,303 4.2 -8.8°
Drops below altitude 10° 06:44:49 10° 223° (SW) 1,886 5.3 -8.3°
Sets 06:47:23 0° 208° (SSW) 2,783 6.4 -8.0°
